User: anonymous   Login
Location: Unspecified
(0.0000°N, 0.0000°E)
Time: 08:37:48
(UTC+01:00)
Language:

Cosmos 1703 Rocket - Orbit

View from above orbital plane
View from above orbital plane
View from above satellite
View from above satellite

Ground track
Ground track

The orbit data is extracted from the following two-line orbital elements,

1 16263U 85108B   17058.88301375  .00000115  00000-0  11250-4 0  9996
2 16263  82.5030 216.8484 0019833 352.5821 160.0114 14.82970879688180
Epoch (UTC): 27 February 2017 21:11:32
Eccentricity: 0.0019833
inclination: 82.5030°
perigee height: 606 km
apogee height: 634 km
right ascension of ascending node: 216.8484°
argument of perigee: 352.5821°
revolutions per day: 14.82970879
mean anomaly at epoch: 160.0114°
orbit number at epoch: 68818

The dashed part of the orbit path shows where the satellite is in the earth's shadow,  

DLR